TimeMDT,TemperatureF,Dew PointF,Humidity,Sea Level PressureIn,VisibilityMPH,Wind Direction,Wind SpeedMPH,Gust SpeedMPH,PrecipitationIn,Events,Conditions,WindDirDegrees,DateUTC
12:53 AM,60.1,54.0,80,29.81,10.0,ENE,6.9,-,N/A,,Clear,60,2013-09-22 06:53:00
1:53 AM,59.0,54.0,83,29.80,10.0,NNE,5.8,-,N/A,,Clear,30,2013-09-22 07:53:00
2:53 AM,57.9,53.1,84,29.78,10.0,NE,5.8,-,N/A,,Clear,50,2013-09-22 08:53:00
3:53 AM,57.9,53.1,84,29.77,10.0,NE,6.9,-,N/A,,Clear,40,2013-09-22 09:53:00
4:53 AM,55.9,52.0,87,29.77,10.0,NE,5.8,-,N/A,,Clear,50,2013-09-22 10:53:00
5:53 AM,55.9,52.0,87,29.77,10.0,NE,5.8,-,N/A,,Clear,40,2013-09-22 11:53:00
6:53 AM,55.9,52.0,87,29.78,10.0,NE,5.8,-,N/A,,Clear,40,2013-09-22 12:53:00
7:53 AM,60.1,53.1,78,29.78,10.0,East,5.8,-,N/A,,Clear,90,2013-09-22 13:53:00
8:53 AM,64.9,54.0,68,29.79,10.0,East,11.5,-,N/A,,Clear,80,2013-09-22 14:53:00
9:53 AM,69.1,54.0,58,29.78,10.0,SSE,5.8,-,N/A,,Clear,160,2013-09-22 15:53:00
10:53 AM,73.9,54.0,50,29.76,10.0,NE,6.9,-,N/A,,Clear,40,2013-09-22 16:53:00
11:53 AM,77.0,52.0,42,29.73,10.0,East,4.6,-,N/A,,Clear,100,2013-09-22 17:53:00
12:53 PM,79.0,53.1,40,29.71,10.0,South,5.8,-,N/A,,Clear,180,2013-09-22 18:53:00
1:53 PM,82.0,52.0,35,29.67,10.0,Variable,5.8,-,N/A,,Clear,0,2013-09-22 19:53:00
2:53 PM,82.0,53.1,37,29.63,10.0,SE,9.2,-,N/A,,Clear,130,2013-09-22 20:53:00
3:53 PM,84.0,53.1,34,29.59,10.0,SSW,8.1,18.4,N/A,,Clear,200,2013-09-22 21:53:00
4:53 PM,84.9,52.0,32,29.56,10.0,South,12.7,-,N/A,,Scattered Clouds,180,2013-09-22 22:53:00
5:53 PM,82.9,52.0,34,29.56,10.0,SSW,11.5,-,N/A,,Mostly Cloudy,200,2013-09-22 23:53:00
6:53 PM,82.9,51.1,33,29.56,10.0,West,13.8,26.5,N/A,,Scattered Clouds,260,2013-09-23 00:53:00
7:53 PM,80.1,51.1,36,29.58,10.0,WSW,17.3,26.5,N/A,,Clear,250,2013-09-23 01:53:00
8:53 PM,75.9,53.1,45,29.60,10.0,SW,9.2,-,N/A,,Clear,230,2013-09-23 02:53:00
9:53 PM,75.9,53.1,45,29.62,10.0,WSW,8.1,-,N/A,,Mostly Cloudy,240,2013-09-23 03:53:00
10:53 PM,73.0,54.0,51,29.62,10.0,West,10.4,-,N/A,,Clear,270,2013-09-23 04:53:00
11:53 PM,71.1,50.0,47,29.63,10.0,West,11.5,-,N/A,,Clear,280,2013-09-23 05:53:00